Date String (YYYY-MM-DD hh:mm:ss) UTC,Instrument flags,Ambient pressure (hPa),Sample flow (lpm),Bypass flow (lpm),Sample temperature (°C),Ambient temperature (°C),ASC tube jacket temperature (°C),LED temperature (°C),Box temperature (°C),Sample RH (%),Span deviation,Mass concentration (μg/m³),Mass concentration (μg/m³),Mass concentration (μg/m³)
DateTimeUTC,F1_M11,P_M11,Q1_M11,Q2_M11,T1_M11,T2_M11,T3_M11,T4_M11,T5_M11,U1_M11,ZSPAN_M11,X0_M11,X2_M11,X1_M11
2021-12-16 22:00:00,,0817.6,5.00,0.00,26.5,25.7,00.0,35.4,28.3,06.3,0000.0,0014.55,0003.93,0002.42
2021-12-16 22:01:00,,0817.6,5.00,0.00,26.5,25.7,00.0,35.4,28.3,06.3,0000.0,0014.32,0004.00,0002.43
2021-12-16 22:02:00,,0817.5,5.00,0.00,26.5,25.7,00.0,35.4,28.3,06.3,0000.0,0015.10,0004.02,0002.45
2021-12-16 22:03:00,,0817.6,5.01,0.00,26.5,25.7,00.0,35.4,28.3,06.4,0000.0,0015.53,0004.03,0002.45
2021-12-16 22:04:00,,0817.5,5.00,0.00,26.6,25.7,00.0,35.4,28.4,06.4,0000.0,0015.71,0004.07,0002.47
2021-12-16 22:05:00,,0817.6,5.00,0.00,26.6,25.7,00.0,35.4,28.4,06.3,0000.0,0016.22,0004.12,0002.49
2021-12-16 22:06:00,,0817.6,5.01,0.00,26.6,25.7,00.0,35.4,28.4,06.3,0000.0,0015.84,0004.14,0002.49
2021-12-16 22:07:00,,0817.6,5.01,0.00,26.6,25.8,00.0,35.4,28.4,06.3,0000.0,0015.62,0004.16,0002.51
2021-12-16 22:08:00,,0817.6,4.99,0.00,26.6,25.8,00.0,35.5,28.4,06.3,0000.0,0016.65,0004.24,0002.54
2021-12-16 22:09:00,,0817.6,5.00,0.00,26.6,25.8,00.0,35.5,28.4,06.3,0000.0,0017.60,0004.26,0002.55
2021-12-16 22:10:00,,0817.5,4.99,0.00,26.6,25.8,00.0,35.5,28.4,06.3,0000.0,0017.14,0004.25,0002.55
2021-12-16 22:11:00,,0817.5,5.00,0.00,26.6,25.7,00.0,35.5,28.3,06.3,0000.0,0019.41,0004.26,0002.56
2021-12-16 22:12:00,,0817.5,5.00,0.00,26.6,25.7,00.0,35.5,28.3,06.3,0000.0,0020.21,0004.25,0002.56
2021-12-16 22:13:00,,0817.5,5.00,0.00,26.6,25.7,00.0,35.5,28.4,06.3,0000.0,0020.15,0004.28,0002.56
2021-12-16 22:14:00,,0817.4,5.02,0.00,26.6,25.7,00.0,35.5,28.4,06.3,0000.0,0020.24,0004.26,0002.55
2021-12-16 22:15:00,,0817.5,4.98,0.00,26.6,25.7,00.0,35.5,28.4,06.3,0000.0,0020.29,0004.23,0002.52
2021-12-16 22:16:00,,0817.6,5.01,0.00,26.6,25.7,00.0,35.5,28.4,06.3,0000.0,0019.64,0004.19,0002.51
2021-12-16 22:17:00,,0817.6,5.00,0.00,26.6,25.7,00.0,35.5,28.4,06.3,0000.0,0019.43,0004.14,0002.53
2021-12-16 22:18:00,,0817.6,5.01,0.00,26.6,25.7,00.0,35.5,28.4,06.2,0000.0,0019.50,0004.09,0002.51
2021-12-16 22:19:00,,0817.6,4.98,0.00,26.6,25.7,00.0,35.5,28.4,06.2,0000.0,0018.96,0004.04,0002.48
2021-12-16 22:20:00,,0817.6,5.02,0.00,26.6,25.7,00.0,35.5,28.4,06.2,0000.0,0017.48,0004.02,0002.46
2021-12-16 22:21:00,,0817.6,4.99,0.00,26.6,25.8,00.0,35.5,28.4,06.2,0000.0,0017.04,0003.97,0002.43
2021-12-16 22:22:00,,0817.6,5.00,0.00,26.6,25.8,00.0,35.5,28.4,06.3,0000.0,0015.36,0003.95,0002.40
2021-12-16 22:23:00,,0817.6,4.99,0.00,26.6,25.8,00.0,35.5,28.5,06.2,0000.0,0014.53,0003.94,0002.37
2021-12-16 22:24:00,,0817.7,5.00,0.00,26.6,25.8,00.0,35.5,28.5,06.2,0000.0,0013.73,0003.89,0002.33
2021-12-16 22:25:00,,0817.6,5.01,0.00,26.7,25.8,00.0,35.5,28.5,06.2,0000.0,0012.51,0003.85,0002.29
2021-12-16 22:26:00,,0817.6,4.99,0.00,26.7,25.8,00.0,35.5,28.5,06.2,0000.0,0012.96,0003.85,0002.27
2021-12-16 22:27:00,,0817.6,5.01,0.00,26.7,25.8,00.0,35.5,28.5,06.1,0000.0,0013.23,0003.84,0002.22
2021-12-16 22:28:00,,0817.5,4.98,0.00,26.7,25.9,00.0,35.5,28.5,06.1,0000.0,0013.54,0003.84,0002.15
2021-12-16 22:29:00,,0817.5,4.99,0.00,26.7,25.9,00.0,35.5,28.5,06.1,0000.0,0013.87,0003.86,0002.12
2021-12-16 22:30:00,,0817.6,5.01,0.00,26.7,25.9,00.0,35.5,28.5,06.0,0000.0,0014.20,0003.85,0002.07
2021-12-16 22:31:00,,0817.6,5.01,0.00,26.7,25.9,00.0,35.5,28.5,06.0,0000.0,0014.26,0003.84,0002.01
2021-12-16 22:32:00,,0817.6,5.00,0.00,26.7,25.9,00.0,35.6,28.5,06.1,0000.0,0014.13,0003.81,0001.98
2021-12-16 22:33:00,,0817.6,5.01,0.00,26.7,25.9,00.0,35.6,28.5,06.0,0000.0,0013.37,0003.77,0001.95
2021-12-16 22:34:00,,0817.6,4.99,0.00,26.7,25.9,00.0,35.6,28.6,06.0,0000.0,0013.24,0003.70,0001.89
2021-12-16 22:35:00,,0817.6,5.00,0.00,26.8,26.0,00.0,35.6,28.6,06.1,0000.0,0013.40,0003.67,0001.86
2021-12-16 22:36:00,,0817.5,5.00,0.00,26.8,26.0,00.0,35.6,28.6,06.1,0000.0,0013.23,0003.64,0001.85
2021-12-16 22:37:00,,0817.5,5.00,0.00,26.8,26.0,00.0,35.6,28.6,06.0,0000.0,0013.51,0003.59,0001.82
2021-12-16 22:38:00,,0817.5,5.00,0.00,26.8,26.0,00.0,35.6,28.6,06.0,0000.0,0013.69,0003.55,0001.80
2021-12-16 22:39:00,,0817.6,5.01,0.00,26.8,26.0,00.0,35.6,28.6,06.0,0000.0,0013.35,0003.51,0001.78
2021-12-16 22:40:00,,0817.6,5.01,0.00,26.8,26.0,00.0,35.6,28.7,06.0,0000.0,0012.86,0003.47,0001.78
2021-12-16 22:41:00,,0817.6,5.00,0.00,26.8,26.0,00.0,35.7,28.7,06.0,0000.0,0011.85,0003.47,0001.78
2021-12-16 22:42:00,,0817.6,4.98,0.00,26.8,26.0,00.0,35.7,28.7,06.0,0000.0,0012.31,0003.52,0001.78
2021-12-16 22:43:00,,0817.7,5.02,0.00,26.8,26.1,00.0,35.7,28.7,05.9,0000.0,0012.45,0003.56,0001.79
2021-12-16 22:44:00,,0817.7,4.99,0.00,26.9,26.1,00.0,35.7,28.7,05.9,0000.0,0013.47,0003.52,0001.75
2021-12-16 22:45:00,,0817.6,5.00,0.00,26.9,26.1,00.0,35.7,28.7,05.9,0000.0,0013.91,0003.51,0001.74
2021-12-16 22:46:00,,0817.6,5.02,0.00,26.9,26.1,00.0,35.7,28.7,05.9,0000.0,0014.17,0003.50,0001.74
2021-12-16 22:47:00,,0817.7,4.98,0.00,26.9,26.1,00.0,35.7,28.7,05.9,0000.0,0014.51,0003.50,0001.72
2021-12-16 22:48:00,,0817.6,4.99,0.00,26.9,26.1,00.0,35.7,28.7,05.9,0000.0,0014.06,0003.55,0001.69
2021-12-16 22:49:00,,0817.6,5.00,0.00,26.9,26.2,00.0,35.7,28.7,05.9,0000.0,0013.12,0003.51,0001.67
2021-12-16 22:50:00,,0817.6,5.01,0.00,26.9,26.2,00.0,35.7,28.8,05.9,0000.0,0013.17,0003.51,0001.66
2021-12-16 22:51:00,,0817.7,4.98,0.00,26.9,26.2,00.0,35.8,28.8,06.0,0000.0,0013.99,0003.53,0001.66
2021-12-16 22:52:00,,0817.6,4.99,0.00,26.9,26.2,00.0,35.8,28.8,06.0,0000.0,0014.68,0003.52,0001.66
2021-12-16 22:53:00,,0817.7,5.01,0.00,27.0,26.2,00.0,35.8,28.8,05.9,0000.0,0015.20,0003.52,0001.70
2021-12-16 22:54:00,,0817.7,4.99,0.00,27.0,26.2,00.0,35.8,28.8,05.9,0000.0,0016.54,0003.46,0001.71
2021-12-16 22:55:00,,0817.6,5.00,0.00,27.0,26.2,00.0,35.8,28.8,05.9,0000.0,0016.37,0003.54,0001.76
2021-12-16 22:56:00,,0817.6,5.00,0.00,27.0,26.2,00.0,35.8,28.8,05.9,0000.0,0016.91,0003.61,0001.81
2021-12-16 22:57:00,,0817.6,5.01,0.00,27.0,26.2,00.0,35.8,28.8,05.8,0000.0,0016.94,0003.62,0001.83
2021-12-16 22:58:00,,0817.6,4.99,0.00,27.0,26.2,00.0,35.8,28.8,05.8,0000.0,0016.74,0003.61,0001.86
2021-12-16 22:59:00,,0817.5,5.01,0.00,27.0,26.2,00.0,35.8,28.8,05.8,0000.0,0016.78,0003.60,0001.90
